Stündliche Wetter Warszty

Heute, 24 Oktober, Samstag

Zeit Temperatur Niederschläge Wind Luftdruck Luftfeuchtigkeit
00:00 +13°C° 0.5 mm 4 m/S 746 mmHg 89%
01:00 +13°C° 0.5 mm 4 m/S 746 mmHg 92%
02:00 +13°C° 0.2 mm 4 m/S 746 mmHg 92%
03:00 +13°C° 0.2 mm 4 m/S 746 mmHg 92%
04:00 +13°C° 0.2 mm 3 m/S 746 mmHg 92%
05:00 +13°C° 0 mm 3 m/S 747 mmHg 93%
06:00 +13°C° 0 mm 2 m/S 747 mmHg 93%
07:00 +12°C° 0 mm 2 m/S 748 mmHg 94%
08:00 +13°C° 0 mm 2 m/S 748 mmHg 89%
09:00 +14°C° 0 mm 3 m/S 748 mmHg 85%
10:00 +15°C° 0 mm 4 m/S 748 mmHg 80%
11:00 +15°C° 0 mm 4 m/S 749 mmHg 78%
12:00 +15°C° 0 mm 4 m/S 749 mmHg 76%
13:00 +17°C° 0 mm 4 m/S 749 mmHg 74%
14:00 +16°C° 0 mm 3 m/S 749 mmHg 75%
15:00 +16°C° 0 mm 3 m/S 749 mmHg 76%
16:00 +16°C° 0 mm 2 m/S 749 mmHg 76%
17:00 +15°C° 0 mm 2 m/S 749 mmHg 79%
18:00 +14°C° 0 mm 2 m/S 749 mmHg 82%
19:00 +13°C° 0 mm 2 m/S 749 mmHg 85%
20:00 +13°C° 0 mm 2 m/S 750 mmHg 86%
21:00 +12°C° 0 mm 2 m/S 750 mmHg 87%
22:00 +12°C° 0 mm 2 m/S 750 mmHg 88%
23:00 +12°C° 0 mm 2 m/S 750 mmHg 89%

Morgen, 25 Oktober, Sonntag

Zeit Temperatur Niederschläge Wind Luftdruck Luftfeuchtigkeit
00:00 +10°C° 0 mm 2 m/S 750 mmHg 90%
01:00 +10°C° 0 mm 2 m/S 750 mmHg 90%
02:00 +10°C° 0 mm 2 m/S 750 mmHg 90%
03:00 +10°C° 0 mm 2 m/S 749 mmHg 90%
04:00 +9°C° 0 mm 2 m/S 749 mmHg 89%
05:00 +9°C° 0 mm 2 m/S 749 mmHg 90%
06:00 +9°C° 0 mm 2 m/S 749 mmHg 91%
07:00 +9°C° 0 mm 3 m/S 749 mmHg 92%
08:00 +11°C° 0 mm 3 m/S 749 mmHg 86%
09:00 +12°C° 0 mm 3 m/S 749 mmHg 80%
10:00 +14°C° 0 mm 3 m/S 749 mmHg 75%
11:00 +15°C° 0 mm 4 m/S 748 mmHg 71%
12:00 +17°C° 0 mm 4 m/S 748 mmHg 67%
13:00 +18°C° 0 mm 4 m/S 748 mmHg 64%
14:00 +17°C° 0 mm 4 m/S 747 mmHg 68%
15:00 +16°C° 0 mm 3 m/S 747 mmHg 72%
16:00 +16°C° 0 mm 3 m/S 746 mmHg 76%
17:00 +14°C° 0 mm 3 m/S 746 mmHg 79%
18:00 +13°C° 0 mm 3 m/S 746 mmHg 82%
19:00 +12°C° 0 mm 4 m/S 746 mmHg 85%
20:00 +12°C° 0 mm 4 m/S 746 mmHg 86%
21:00 +11°C° 0 mm 4 m/S 746 mmHg 86%
22:00 +11°C° 0 mm 4 m/S 745 mmHg 86%
23:00 +11°C° 0 mm 3 m/S 745 mmHg 88%

übermorgen, 26 Oktober, Montag

Zeit Temperatur Niederschläge Wind Luftdruck Luftfeuchtigkeit
00:00 +10°C° 0 mm 3 m/S 745 mmHg 90%
01:00 +10°C° 0 mm 2 m/S 745 mmHg 92%
02:00 +9°C° 0 mm 2 m/S 744 mmHg 93%
03:00 +9°C° 0 mm 2 m/S 744 mmHg 93%
04:00 +9°C° 0 mm 2 m/S 744 mmHg 93%
05:00 +9°C° 0 mm 2 m/S 744 mmHg 93%
06:00 +9°C° 0 mm 2 m/S 744 mmHg 93%
07:00 +9°C° 0 mm 2 m/S 743 mmHg 93%
08:00 +12°C° 0 mm 2 m/S 743 mmHg 87%
09:00 +13°C° 0 mm 2 m/S 743 mmHg 81%
10:00 +14°C° 0 mm 3 m/S 743 mmHg 75%
11:00 +14°C° 0 mm 3 m/S 743 mmHg 74%
12:00 +14°C° 0 mm 3 m/S 743 mmHg 74%
13:00 +16°C° 0 mm 3 m/S 743 mmHg 73%
14:00 +14°C° 0 mm 3 m/S 743 mmHg 74%
15:00 +14°C° 0 mm 3 m/S 742 mmHg 76%
16:00 +14°C° 0 mm 3 m/S 742 mmHg 77%
17:00 +13°C° 0.1 mm 3 m/S 742 mmHg 79%
18:00 +13°C° 0.1 mm 3 m/S 743 mmHg 81%
19:00 +12°C° 0.1 mm 3 m/S 743 mmHg 83%
20:00 +12°C° 0 mm 3 m/S 743 mmHg 85%
21:00 +12°C° 0 mm 3 m/S 743 mmHg 88%
22:00 +11°C° 0 mm 3 m/S 743 mmHg 91%
23:00 +10°C° 0 mm 2 m/S 744 mmHg 93%

, 27 Oktober, Dienstag

Zeit Temperatur Niederschläge Wind Luftdruck Luftfeuchtigkeit
00:00 +10°C° 0 mm 2 m/S 744 mmHg 95%
01:00 +9°C° 0 mm 2 m/S 744 mmHg 97%
02:00 +10°C° 0 mm 1 m/S 744 mmHg 96%
03:00 +10°C° 0 mm 1 m/S 744 mmHg 96%
04:00 +9°C° 0 mm 0 m/S 744 mmHg 96%
05:00 +10°C° 0.1 mm 1 m/S 744 mmHg 95%
06:00 +10°C° 0.1 mm 1 m/S 744 mmHg 95%
07:00 +10°C° 0.1 mm 2 m/S 744 mmHg 94%
08:00 +10°C° 0.2 mm 2 m/S 744 mmHg 94%
09:00 +11°C° 0.2 mm 1 m/S 744 mmHg 93%
10:00 +11°C° 0.2 mm 1 m/S 744 mmHg 93%
11:00 +11°C° 0.1 mm 1 m/S 744 mmHg 92%
12:00 +12°C° 0.1 mm 1 m/S 745 mmHg 91%
13:00 +12°C° 0.1 mm 1 m/S 745 mmHg 89%
14:00 +11°C° 0.2 mm 1 m/S 745 mmHg 91%
15:00 +10°C° 0.2 mm 2 m/S 745 mmHg 92%
16:00 +10°C° 0.2 mm 2 m/S 745 mmHg 93%
17:00 +10°C° 0.3 mm 2 m/S 745 mmHg 93%
18:00 +10°C° 0.3 mm 2 m/S 746 mmHg 94%
19:00 +9°C° 0.3 mm 2 m/S 746 mmHg 94%
20:00 +9°C° 0 mm 2 m/S 746 mmHg 94%
21:00 +9°C° 0 mm 2 m/S 747 mmHg 95%
22:00 +9°C° 0 mm 2 m/S 747 mmHg 95%
23:00 +8°C° 0 mm 2 m/S 747 mmHg 95%

27 Oktober, Dienstag

Zeit Temperatur Niederschläge Wind Luftdruck Luftfeuchtigkeit
00:00 +10°C° 0 mm 2 m/S 744 mmHg 95%
01:00 +9°C° 0 mm 2 m/S 744 mmHg 97%
02:00 +10°C° 0 mm 1 m/S 744 mmHg 96%
03:00 +10°C° 0 mm 1 m/S 744 mmHg 96%
04:00 +9°C° 0 mm 0 m/S 744 mmHg 96%
05:00 +10°C° 0.1 mm 1 m/S 744 mmHg 95%
06:00 +10°C° 0.1 mm 1 m/S 744 mmHg 95%
07:00 +10°C° 0.1 mm 2 m/S 744 mmHg 94%
08:00 +10°C° 0.2 mm 2 m/S 744 mmHg 94%
09:00 +11°C° 0.2 mm 1 m/S 744 mmHg 93%
10:00 +11°C° 0.2 mm 1 m/S 744 mmHg 93%
11:00 +11°C° 0.1 mm 1 m/S 744 mmHg 92%
12:00 +12°C° 0.1 mm 1 m/S 745 mmHg 91%
13:00 +12°C° 0.1 mm 1 m/S 745 mmHg 89%
14:00 +11°C° 0.2 mm 1 m/S 745 mmHg 91%
15:00 +10°C° 0.2 mm 2 m/S 745 mmHg 92%
16:00 +10°C° 0.2 mm 2 m/S 745 mmHg 93%
17:00 +10°C° 0.3 mm 2 m/S 745 mmHg 93%
18:00 +10°C° 0.3 mm 2 m/S 746 mmHg 94%
19:00 +9°C° 0.3 mm 2 m/S 746 mmHg 94%
20:00 +9°C° 0 mm 2 m/S 746 mmHg 94%
21:00 +9°C° 0 mm 2 m/S 747 mmHg 95%
22:00 +9°C° 0 mm 2 m/S 747 mmHg 95%
23:00 +8°C° 0 mm 2 m/S 747 mmHg 95%

28 Oktober, Mittwoch

Zeit Temperatur Niederschläge Wind Luftdruck Luftfeuchtigkeit
00:00 +8°C° 0 mm 2 m/S 748 mmHg 95%
01:00 +8°C° 0 mm 2 m/S 748 mmHg 95%
02:00 +7°C° 0 mm 2 m/S 748 mmHg 95%
03:00 +7°C° 0 mm 2 m/S 748 mmHg 94%
04:00 +7°C° 0 mm 2 m/S 748 mmHg 94%
05:00 +7°C° 0 mm 2 m/S 748 mmHg 93%
06:00 +7°C° 0 mm 2 m/S 748 mmHg 92%
07:00 +6°C° 0 mm 2 m/S 748 mmHg 91%
08:00 +8°C° 0 mm 3 m/S 748 mmHg 84%
09:00 +9°C° 0 mm 3 m/S 748 mmHg 78%
10:00 +11°C° 0 mm 4 m/S 748 mmHg 71%
11:00 +12°C° 0 mm 4 m/S 748 mmHg 69%
12:00 +13°C° 0 mm 4 m/S 748 mmHg 66%
13:00 +13°C° 0 mm 4 m/S 748 mmHg 63%
14:00 +13°C° 0 mm 4 m/S 748 mmHg 65%
15:00 +12°C° 0 mm 3 m/S 748 mmHg 67%
16:00 +12°C° 0 mm 3 m/S 748 mmHg 69%
17:00 +11°C° 0 mm 3 m/S 748 mmHg 70%
18:00 +11°C° 0 mm 3 m/S 748 mmHg 72%
19:00 +10°C° 0 mm 4 m/S 748 mmHg 73%
20:00 +10°C° 0 mm 3 m/S 748 mmHg 75%
21:00 +9°C° 0 mm 3 m/S 748 mmHg 77%
22:00 +9°C° 0 mm 3 m/S 749 mmHg 79%
23:00 +9°C° 0 mm 3 m/S 749 mmHg 80%

29 Oktober, Donnerstag

Zeit Temperatur Niederschläge Wind Luftdruck Luftfeuchtigkeit
00:00 +8°C° 0 mm 3 m/S 749 mmHg 81%
01:00 +8°C° 0 mm 3 m/S 748 mmHg 82%
02:00 +8°C° 0 mm 3 m/S 748 mmHg 81%
03:00 +8°C° 0 mm 4 m/S 748 mmHg 79%
04:00 +8°C° 0 mm 4 m/S 748 mmHg 78%
05:00 +8°C° 0 mm 4 m/S 748 mmHg 76%
06:00 +9°C° 0 mm 5 m/S 748 mmHg 74%
07:00 +9°C° 0 mm 5 m/S 749 mmHg 73%
08:00 +10°C° 0 mm 6 m/S 749 mmHg 70%
09:00 +11°C° 0 mm 6 m/S 749 mmHg 67%
10:00 +13°C° 0 mm 6 m/S 749 mmHg 64%
11:00 +14°C° 0.1 mm 7 m/S 749 mmHg 62%
12:00 +14°C° 0.1 mm 7 m/S 750 mmHg 60%
13:00 +15°C° 0.1 mm 7 m/S 750 mmHg 58%
14:00 +14°C° 0 mm 6 m/S 750 mmHg 61%
15:00 +13°C° 0 mm 5 m/S 750 mmHg 65%
16:00 +12°C° 0 mm 4 m/S 750 mmHg 68%
17:00 +11°C° 0 mm 4 m/S 751 mmHg 71%
18:00 +10°C° 0 mm 3 m/S 751 mmHg 75%
19:00 +10°C° 0 mm 3 m/S 752 mmHg 78%
20:00 +9°C° 0 mm 3 m/S 752 mmHg 79%
21:00 +9°C° 0 mm 3 m/S 752 mmHg 79%
22:00 +9°C° 0 mm 3 m/S 752 mmHg 80%
23:00 +9°C° 0 mm 3 m/S 752 mmHg 81%
Mehr zeigen

Wir brauchen deine Erlaubnis

Meteoprog und unser Service Anbieter werden persönliche Daten aufbewahren, so wie Cookies, Geräte Bezeichnung oder ähnliche Technologien von deinem Gerät und Prozess, so wie Persönliche Daten Inhalte und Werbungen, genauso wie social Media und den Verkehr zu analysieren.

  • Aufbewahrung und/oder Zugang zu deiner Geräte Informationen.

    Cookies, Geräte Bezeichnung oder andere Informationen, können aufbewahrt oder Zugang zu deinem Gerät erhalten, für den Grund, der oben angegeben wird.

  • Personalisierte Werbung und Inhalte, Messungen, Einblick in das Publikum und Produkt Entwicklung.

    Werbungen und Inhalte können personalisiert werden, basierend auf ein Profil. Mehr Daten können besser personalisierte Werbungen und Inhalte hinzufügen. Werbung und Inhalte können gezeigt und gemessen werden. Einblicke über das Publikum, welche die Werbung gesehen haben und den Inhalt, können abgeleitet werden. So wie Daten können genutzt werden, um es zu verbessern oder die Benutzer Erfahrung zu verbessern das System und die Software.

Wenn du “Ich stimme zu” klickst, erlaubst du uns, die Cookies zu benutzen die Geräte Bezeichnung, den Web oder ähnliche Technologien zu benutzen. Deine Settings, können in deinem Gerät bei deinem Browser geändert werden.

Für den bestimmten Zweck, berechtigten Interessen beruhen darauf, mehr als auf den Inhalt. Du kannst mehr darüber in unseren Privaten und Cookie Politik lesen.